| time (UTC) | temp F | wind direction | speed MPH | gust MPH | rain 1hr in | rain 24hr in | rain mn in | humidity % | barometer mb |
| 20260903165057 | 72 | 249 | 9.0 | 24.0 | 0.00 | 0.00 | 0.00 | 65 | 1014.3 |
| 20260903164600 | 71 | 258 | 14.0 | 24.0 | 0.00 | 0.00 | 0.00 | 65 | 1014.2 |
| 20260903164059 | 71 | 221 | 13.0 | 22.0 | 0.00 | 0.00 | 0.00 | 66 | 1014.2 |
| 20260903163558 | 71 | 244 | 6.0 | 12.0 | 0.00 | 0.00 | 0.00 | 65 | 1014.3 |
| 20260903163058 | 71 | 225 | 7.0 | 12.0 | 0.00 | 0.00 | 0.00 | 65 | 1014.1 |
| 20260903162558 | 71 | 214 | 4.0 | 9.0 | 0.00 | 0.00 | 0.00 | 65 | 1014.1 |
| 20260903162058 | 71 | 215 | 5.0 | 9.0 | 0.00 | 0.00 | 0.00 | 65 | 1014.1 |
| 20260903161559 | 71 | 215 | 7.0 | 9.0 | 0.00 | 0.00 | 0.00 | 65 | 1014.2 |
| 20260903161058 | 71 | 203 | 5.0 | 10.0 | 0.00 | 0.00 | 0.00 | 64 | 1014.2 |
| 20260903160558 | 71 | 238 | 6.0 | 13.0 | 0.00 | 0.00 | 0.00 | 64 | 1014.3 |
| 20260903160054 | 72 | 210 | 7.0 | 13.0 | 0.00 | 0.00 | 0.00 | 64 | 1014.4 |
| 20260903155836 | 72 | 206 | 4.0 | 10.0 | 0.00 | 0.00 | 0.00 | 63 | 1014.3 |
| 20260903155056 | 72 | 204 | 6.0 | 12.0 | 0.00 | 0.00 | 0.00 | 63 | 1014.4 |
| 20260903154556 | 72 | 217 | 8.0 | 12.0 | 0.00 | 0.00 | 0.00 | 63 | 1014.5 |
| 20260903154056 | 73 | 203 | 8.0 | 11.0 | 0.00 | 0.00 | 0.00 | 62 | 1014.6 |
| 20260903153555 | 73 | 235 | 7.0 | 11.0 | 0.00 | 0.00 | 0.00 | 62 | 1014.6 |
| 20260903153424 | 73 | 222 | 8.0 | 12.0 | 0.00 | 0.00 | 0.00 | 62 | 1014.6 |
| 20260903153416 | 73 | 227 | 7.0 | 12.0 | 0.00 | 0.00 | 0.00 | 63 | 1014.6 |
| 20260903152057 | 73 | 237 | 8.0 | 15.0 | 0.00 | 0.00 | 0.00 | 62 | 1014.6 |
| 20260903151557 | 73 | 228 | 9.0 | 15.0 | 0.00 | 0.00 | 0.00 | 63 | 1014.6 |
| 20260903151055 | 72 | 232 | 7.0 | 12.0 | 0.00 | 0.00 | 0.00 | 63 | 1014.8 |
| 20260903150555 | 72 | 213 | 9.0 | 12.0 | 0.00 | 0.00 | 0.00 | 63 | 1014.9 |
| 20260903150055 | 72 | 225 | 8.0 | 12.0 | 0.00 | 0.00 | 0.00 | 62 | 1015.0 |
| 20260903145554 | 72 | 217 | 6.0 | 11.0 | 0.00 | 0.00 | 0.00 | 62 | 1014.9 |
| 20260903145055 | 72 | 231 | 9.0 | 13.0 | 0.00 | 0.00 | 0.00 | 61 | 1014.9 |
| 20260903144555 | 72 | 221 | 6.0 | 13.0 | 0.00 | 0.00 | 0.00 | 61 | 1015.1 |
| 20260903144055 | 72 | 213 | 11.0 | 13.0 | 0.00 | 0.00 | 0.00 | 61 | 1015.0 |
| 20260903143554 | 73 | 229 | 10.0 | 15.0 | 0.00 | 0.00 | 0.00 | 61 | 1015.1 |
| 20260903143335 | 73 | 237 | 6.0 | 16.0 | 0.00 | 0.00 | 0.00 | 60 | 1015.1 |
| 20260903142554 | 73 | 214 | 9.0 | 16.0 | 0.00 | 0.00 | 0.00 | 60 | 1015.2 |
| 20260903142054 | 73 | 224 | 11.0 | 15.0 | 0.00 | 0.00 | 0.00 | 59 | 1015.1 |
| 20260903141554 | 73 | 215 | 10.0 | 13.0 | 0.00 | 0.00 | 0.00 | 59 | 1015.1 |
| 20260903141333 | 72 | 252 | 7.0 | 12.0 | 0.00 | 0.00 | 0.00 | 60 | 1015.1 |
| 20260903140554 | 72 | 203 | 7.0 | 16.0 | 0.00 | 0.00 | 0.00 | 60 | 1015.2 |
| 20260903140053 | 72 | 204 | 9.0 | 16.0 | 0.00 | 0.00 | 0.00 | 60 | 1015.2 |
| 20260903135554 | 72 | 208 | 9.0 | 14.0 | 0.00 | 0.00 | 0.00 | 62 | 1015.3 |
| 20260903135054 | 72 | 232 | 7.0 | 14.0 | 0.00 | 0.00 | 0.00 | 61 | 1015.4 |
| 20260903134554 | 72 | 213 | 9.0 | 13.0 | 0.00 | 0.00 | 0.00 | 60 | 1015.4 |
| 20260903134058 | 72 | 228 | 8.0 | 16.0 | 0.00 | 0.00 | 0.00 | 61 | 1015.5 |
| 20260903133554 | 72 | 215 | 6.0 | 16.0 | 0.00 | 0.00 | 0.00 | 61 | 1015.6 |
| 20260903133053 | 72 | 255 | 5.0 | 21.0 | 0.00 | 0.00 | 0.00 | 60 | 1015.6 |
| 20260903132553 | 72 | 224 | 15.0 | 21.0 | 0.00 | 0.00 | 0.00 | 61 | 1015.7 |
| 20260903132053 | 72 | 206 | 12.0 | 16.0 | 0.00 | 0.00 | 0.00 | 61 | 1015.7 |
| 20260903131553 | 72 | 220 | 7.0 | 17.0 | 0.00 | 0.00 | 0.00 | 62 | 1015.8 |
| 20260903131452 | 71 | 239 | 9.0 | 20.0 | 0.00 | 0.00 | 0.00 | 61 | 1016.0 |
| 20260903131444 | 72 | 206 | 15.0 | 20.0 | 0.00 | 0.00 | 0.00 | 59 | 1015.9 |
| 20260903131440 | 71 | 259 | 11.0 | 17.0 | 0.00 | 0.00 | 0.00 | 61 | 1015.9 |
| 20260903125554 | 72 | 265 | 10.0 | 16.0 | 0.00 | 0.00 | 0.00 | 61 | 1016.0 |
| 20260903125053 | 72 | 235 | 11.0 | 15.0 | 0.00 | 0.00 | 0.00 | 60 | 1015.9 |
| 20260903124552 | 73 | 237 | 9.0 | 14.0 | 0.00 | 0.00 | 0.00 | 61 | 1015.9 |
| 20260903124053 | 73 | 242 | 12.0 | 14.0 | 0.00 | 0.00 | 0.00 | 62 | 1016.0 |
| 20260903123552 | 73 | 224 | 8.0 | 13.0 | 0.00 | 0.00 | 0.00 | 61 | 1016.1 |
| 20260903123336 | 73 | 234 | 7.0 | 15.0 | 0.00 | 0.00 | 0.00 | 61 | 1016.1 |
| 20260903122550 | 72 | 256 | 10.0 | 16.0 | 0.00 | 0.00 | 0.00 | 61 | 1016.1 |
| 20260903122334 | 72 | 262 | 11.0 | 17.0 | 0.00 | 0.00 | 0.00 | 61 | 1016.2 |
| 20260903121552 | 72 | 263 | 12.0 | 17.0 | 0.00 | 0.00 | 0.00 | 61 | 1016.2 |
| 20260903121052 | 73 | 234 | 10.0 | 16.0 | 0.00 | 0.00 | 0.00 | 61 | 1016.2 |
| 20260903120551 | 72 | 251 | 9.0 | 14.0 | 0.00 | 0.00 | 0.00 | 63 | 1016.3 |
| 20260903120052 | 72 | 238 | 9.0 | 14.0 | 0.00 | 0.00 | 0.00 | 62 | 1016.3 |
| 20260903115551 | 72 | 231 | 9.0 | 13.0 | 0.00 | 0.00 | 0.00 | 61 | 1016.3 |
| 20260903115051 | 71 | 262 | 7.0 | 13.0 | 0.00 | 0.00 | 0.00 | 63 | 1016.5 |
| 20260903114551 | 71 | 194 | 8.0 | 15.0 | 0.00 | 0.00 | 0.00 | 62 | 1016.6 |
| 20260903114050 | 71 | 210 | 7.0 | 15.0 | 0.00 | 0.00 | 0.00 | 63 | 1016.5 |
| 20260903113550 | 71 | 252 | 9.0 | 15.0 | 0.00 | 0.00 | 0.00 | 63 | 1016.6 |
| 20260903113051 | 71 | 231 | 5.0 | 11.0 | 0.00 | 0.00 | 0.00 | 63 | 1016.5 |
| 20260903112552 | 71 | 228 | 7.0 | 11.0 | 0.00 | 0.00 | 0.00 | 63 | 1016.4 |
| 20260903112050 | 70 | 196 | 7.0 | 10.0 | 0.00 | 0.00 | 0.00 | 64 | 1016.5 |
| 20260903111550 | 70 | 251 | 6.0 | 11.0 | 0.00 | 0.00 | 0.00 | 64 | 1016.9 |
| 20260903111050 | 71 | 265 | 7.0 | 14.0 | 0.00 | 0.00 | 0.00 | 63 | 1016.9 |
| 20260903110551 | 71 | 253 | 8.0 | 14.0 | 0.00 | 0.00 | 0.00 | 63 | 1017.0 |
| 20260903110050 | 71 | 301 | 7.0 | 15.0 | 0.00 | 0.00 | 0.00 | 64 | 1016.9 |
| 20260903105550 | 71 | 237 | 8.0 | 15.0 | 0.00 | 0.00 | 0.00 | 64 | 1017.0 |
| 20260903105050 | 71 | 217 | 6.0 | 14.0 | 0.00 | 0.00 | 0.00 | 63 | 1017.0 |
| 20260903104549 | 71 | 242 | 6.0 | 14.0 | 0.00 | 0.00 | 0.00 | 63 | 1016.9 |
| 20260903104051 | 71 | 207 | 6.0 | 11.0 | 0.00 | 0.00 | 0.00 | 65 | 1017.1 |
| 20260903103552 | 71 | 252 | 7.0 | 13.0 | 0.00 | 0.00 | 0.00 | 64 | 1017.2 |
| 20260903103052 | 70 | 235 | 8.0 | 14.0 | 0.00 | 0.00 | 0.00 | 63 | 1017.2 |
| 20260903102829 | 71 | 213 | 10.0 | 14.0 | 0.00 | 0.00 | 0.00 | 62 | 1017.2 |
| 20260903102052 | 71 | 221 | 9.0 | 13.0 | 0.00 | 0.00 | 0.00 | 64 | 1017.2 |
| 20260903101830 | 70 | 217 | 9.0 | 15.0 | 0.00 | 0.00 | 0.00 | 64 | 1017.2 |
| 20260903101050 | 71 | 220 | 11.0 | 15.0 | 0.00 | 0.00 | 0.00 | 65 | 1017.1 |
| 20260903100549 | 71 | 225 | 7.0 | 15.0 | 0.00 | 0.00 | 0.00 | 64 | 1017.2 |
| 20260903100049 | 71 | 217 | 11.0 | 15.0 | 0.00 | 0.00 | 0.00 | 66 | 1017.2 |
| 20260903095549 | 71 | 196 | 12.0 | 14.0 | 0.00 | 0.00 | 0.00 | 66 | 1017.4 |
| 20260903095327 | 71 | 259 | 7.0 | 13.0 | 0.00 | 0.00 | 0.00 | 65 | 1017.6 |
| 20260903094550 | 71 | 214 | 7.0 | 12.0 | 0.00 | 0.00 | 0.00 | 65 | 1017.5 |
| 20260903094050 | 71 | 229 | 7.0 | 12.0 | 0.00 | 0.00 | 0.00 | 66 | 1017.5 |
| 20260903093550 | 70 | 251 | 7.0 | 16.0 | 0.00 | 0.00 | 0.00 | 68 | 1017.6 |
| 20260903093049 | 70 | 249 | 9.0 | 16.0 | 0.00 | 0.00 | 0.00 | 68 | 1017.6 |
| 20260903092549 | 71 | 229 | 8.0 | 13.0 | 0.00 | 0.00 | 0.00 | 69 | 1017.6 |
| 20260903092119 | 70 | 238 | 12.0 | 13.0 | 0.00 | 0.00 | 0.00 | 70 | 1017.8 |
| 20260903092110 | 71 | 227 | 11.0 | 13.0 | 0.00 | 0.00 | 0.00 | 70 | 1017.8 |
| 20260903091048 | 70 | 201 | 7.0 | 13.0 | 0.00 | 0.00 | 0.00 | 70 | 1017.7 |
| 20260903090547 | 70 | 242 | 7.0 | 13.0 | 0.00 | 0.00 | 0.00 | 70 | 1017.8 |
| 20260903090049 | 70 | 225 | 9.0 | 13.0 | 0.00 | 0.00 | 0.00 | 69 | 1017.8 |
| 20260903085548 | 70 | 263 | 8.0 | 13.0 | 0.00 | 0.00 | 0.00 | 69 | 1017.9 |
| 20260903085327 | 70 | 203 | 10.0 | 13.0 | 0.00 | 0.00 | 0.00 | 68 | 1018.0 |
| 20260903084616 | 71 | 227 | 4.0 | 11.0 | 0.00 | 0.00 | 0.00 | 69 | 1017.9 |
| 20260903084602 | 71 | 214 | 9.0 | 12.0 | 0.00 | 0.00 | 0.00 | 68 | 1017.9 |
| 20260903083548 | 70 | 270 | 6.0 | 11.0 | 0.00 | 0.00 | 0.00 | 69 | 1017.9 |
| 20260903083046 | 70 | 249 | 4.0 | 11.0 | 0.00 | 0.00 | 0.00 | 69 | 1018.0 |
| 20260903082547 | 70 | 242 | 7.0 | 11.0 | 0.00 | 0.00 | 0.00 | 69 | 1017.9 |
| 20260903082322 | 71 | 283 | 7.0 | 11.0 | 0.00 | 0.00 | 0.00 | 65 | 1017.9 |
| 20260903081546 | 71 | 234 | 6.0 | 10.0 | 0.00 | 0.00 | 0.00 | 65 | 1017.8 |
| 20260903081047 | 70 | 225 | 7.0 | 11.0 | 0.00 | 0.00 | 0.00 | 69 | 1017.9 |
| 20260903080546 | 69 | 259 | 7.0 | 11.0 | 0.00 | 0.00 | 0.00 | 69 | 1017.9 |
| 20260903080047 | 68 | 220 | 5.0 | 10.0 | 0.00 | 0.00 | 0.00 | 69 | 1017.8 |
| 20260903075547 | 67 | 210 | 6.0 | 10.0 | 0.00 | 0.00 | 0.00 | 74 | 1017.9 |
| 20260903075046 | 65 | 279 | 4.0 | 7.0 | 0.00 | 0.00 | 0.00 | 74 | 1018.0 |
| 20260903074823 | 65 | 229 | 5.0 | 7.0 | 0.00 | 0.00 | 0.00 | 75 | 1018.0 |
| 20260903074046 | 64 | 246 | 4.0 | 9.0 | 0.00 | 0.00 | 0.00 | 75 | 1018.0 |
| 20260903073546 | 64 | 222 | 7.0 | 9.0 | 0.00 | 0.00 | 0.00 | 75 | 1018.0 |
| 20260903073046 | 64 | 259 | 5.0 | 9.0 | 0.00 | 0.00 | 0.00 | 76 | 1018.0 |
| 20260903072545 | 64 | 249 | 6.0 | 9.0 | 0.00 | 0.00 | 0.00 | 76 | 1018.0 |
| 20260903072046 | 63 | 234 | 4.0 | 6.0 | 0.00 | 0.00 | 0.00 | 77 | 1018.1 |
| 20260903071546 | 63 | 262 | 4.0 | 6.0 | 0.00 | 0.00 | 0.00 | 78 | 1017.9 |
| 20260903071413 | 62 | 276 | 4.0 | 11.0 | 0.00 | 0.00 | 0.00 | 78 | 1018.0 |
| 20260903071406 | 63 | 258 | 4.0 | 11.0 | 0.00 | 0.00 | 0.00 | 78 | 1018.0 |
| 20260903070045 | 62 | 232 | 4.0 | 7.0 | 0.00 | 0.00 | 0.00 | 78 | 1018.1 |
| 20260903065545 | 62 | 241 | 5.0 | 7.0 | 0.00 | 0.00 | 0.00 | 79 | 1018.2 |
| 20260903065045 | 62 | 270 | 4.0 | 7.0 | 0.00 | 0.00 | 0.00 | 79 | 1018.2 |
| 20260903064618 | 62 | 241 | 4.0 | 7.0 | 0.00 | 0.00 | 0.00 | 79 | 1018.3 |
| 20260903064607 | 62 | 273 | 4.0 | 7.0 | 0.00 | 0.00 | 0.00 | 79 | 1018.3 |
| 20260903063545 | 62 | 272 | 4.0 | 7.0 | 0.00 | 0.00 | 0.00 | 80 | 1018.2 |
| 20260903063044 | 61 | 238 | 4.0 | 7.0 | 0.00 | 0.00 | 0.00 | 80 | 1018.3 |
| 20260903062544 | 61 | 280 | 5.0 | 10.0 | 0.00 | 0.00 | 0.00 | 80 | 1018.3 |
| 20260903062045 | 61 | 268 | 6.0 | 10.0 | 0.00 | 0.00 | 0.00 | 80 | 1018.4 |
| 20260903061544 | 61 | 273 | 4.0 | 10.0 | 0.00 | 0.00 | 0.00 | 80 | 1018.2 |
| 20260903061045 | 61 | 270 | 4.0 | 10.0 | 0.00 | 0.00 | 0.00 | 81 | 1018.2 |
| 20260903060544 | 60 | 232 | 4.0 | 9.0 | 0.00 | 0.00 | 0.00 | 81 | 1018.3 |
| 20260903060044 | 60 | 252 | 7.0 | 9.0 | 0.00 | 0.00 | 0.00 | 83 | 1018.2 |
| 20260903055544 | 60 | 215 | 6.0 | 9.0 | 0.00 | 0.00 | 0.00 | 83 | 1018.1 |
| 20260903055044 | 60 | 241 | 5.0 | 9.0 | 0.00 | 0.00 | 0.00 | 84 | 1018.1 |
| 20260903054542 | 59 | 244 | 5.0 | 9.0 | 0.00 | 0.00 | 0.00 | 84 | 1018.2 |
| 20260903054324 | 58 | 268 | 2.0 | 6.0 | 0.00 | 0.00 | 0.00 | 85 | 1018.2 |
| 20260903053824 | 58 | 253 | 3.0 | 6.0 | 0.00 | 0.00 | 0.00 | 85 | 1018.2 |
| 20260903053321 | 58 | 135 | 3.0 | 5.0 | 0.00 | 0.00 | 0.00 | 85 | 1018.1 |
| 20260903052821 | 58 | 258 | 2.0 | 5.0 | 0.00 | 0.00 | 0.00 | 86 | 1018.2 |
| 20260903052043 | 57 | 258 | 4.0 | 6.0 | 0.00 | 0.00 | 0.00 | 86 | 1018.2 |
| 20260903051543 | 57 | 262 | 5.0 | 7.0 | 0.00 | 0.00 | 0.00 | 86 | 1018.2 |
| 20260903051042 | 57 | 260 | 3.0 | 7.0 | 0.00 | 0.00 | 0.00 | 85 | 1018.1 |
| 20260903050543 | 57 | 268 | 4.0 | 6.0 | 0.00 | 0.00 | 0.00 | 85 | 1018.2 |
| 20260903050326 | 57 | 244 | 3.0 | 5.0 | 0.00 | 0.00 | 0.00 | 85 | 1018.1 |
| 20260903045544 | 57 | 252 | 3.0 | 6.0 | 0.00 | 0.00 | 0.00 | 85 | 1018.2 |
| 20260903045044 | 57 | 256 | 5.0 | 6.0 | 0.00 | 0.00 | 0.00 | 85 | 1018.2 |
| 20260903044825 | 57 | 265 | 3.0 | 5.0 | 0.00 | 0.00 | 0.00 | 85 | 1018.1 |
| 20260903044044 | 57 | 248 | 3.0 | 5.0 | 0.00 | 0.00 | 0.00 | 85 | 1018.1 |
| 20260903043544 | 57 | 242 | 3.0 | 5.0 | 0.00 | 0.00 | 0.00 | 85 | 1018.0 |
| 20260903043129 | 57 | 251 | 3.0 | 5.0 | 0.00 | 0.00 | 0.00 | 86 | 1018.1 |
| 20260903043113 | 57 | 241 | 4.0 | 5.0 | 0.00 | 0.00 | 0.00 | 86 | 1018.0 |
| 20260903042042 | 57 | 251 | 4.0 | 6.0 | 0.00 | 0.00 | 0.00 | 86 | 1018.2 |
| 20260903041540 | 57 | 253 | 4.0 | 6.0 | 0.00 | 0.00 | 0.00 | 86 | 1018.1 |
| 20260903041042 | 57 | 258 | 4.0 | 5.0 | 0.00 | 0.00 | 0.00 | 86 | 1018.1 |
| 20260903040543 | 57 | 248 | 4.0 | 6.0 | 0.00 | 0.00 | 0.00 | 85 | 1018.1 |
| 20260903040042 | 57 | 248 | 4.0 | 6.0 | 0.00 | 0.00 | 0.00 | 85 | 1018.0 |
| 20260903035542 | 57 | 245 | 3.0 | 6.0 | 0.00 | 0.00 | 0.00 | 86 | 1018.0 |
| 20260903035043 | 57 | 245 | 4.0 | 6.0 | 0.00 | 0.00 | 0.00 | 86 | 1017.9 |
| 20260903034823 | 57 | 256 | 3.0 | 5.0 | 0.00 | 0.00 | 0.00 | 86 | 1017.9 |
| 20260903034043 | 57 | 256 | 2.0 | 5.0 | 0.00 | 0.00 | 0.00 | 86 | 1017.9 |
| 20260903033541 | 58 | 255 | 3.0 | 5.0 | 0.00 | 0.00 | 0.00 | 86 | 1017.9 |
| 20260903033041 | 58 | 255 | 4.0 | 5.0 | 0.00 | 0.00 | 0.00 | 86 | 1018.0 |
| 20260903032541 | 58 | 245 | 4.0 | 5.0 | 0.00 | 0.00 | 0.00 | 86 | 1017.9 |
| 20260903032320 | 58 | 237 | 4.0 | 6.0 | 0.00 | 0.00 | 0.00 | 86 | 1017.9 |
| 20260903031540 | 57 | 239 | 4.0 | 7.0 | 0.00 | 0.00 | 0.00 | 86 | 1017.9 |
| 20260903031041 | 57 | 245 | 4.0 | 9.0 | 0.00 | 0.00 | 0.00 | 86 | 1017.9 |
| 20260903030540 | 57 | 252 | 6.0 | 9.0 | 0.00 | 0.00 | 0.00 | 86 | 1017.9 |
| 20260903030041 | 57 | 259 | 3.0 | 5.0 | 0.00 | 0.00 | 0.00 | 85 | 1017.8 |
| 20260903025541 | 57 | 249 | 3.0 | 5.0 | 0.00 | 0.00 | 0.00 | 85 | 1017.8 |
| 20260903025041 | 57 | 249 | 3.0 | 5.0 | 0.00 | 0.00 | 0.00 | 85 | 1017.9 |
| 20260903024540 | 57 | 246 | 3.0 | 5.0 | 0.00 | 0.00 | 0.00 | 85 | 1017.9 |
| 20260903024041 | 57 | 246 | 4.0 | 5.0 | 0.00 | 0.00 | 0.00 | 85 | 1018.0 |
| 20260903023539 | 57 | 252 | 4.0 | 5.0 | 0.00 | 0.00 | 0.00 | 85 | 1017.9 |
| 20260903023040 | 57 | 252 | 3.0 | 5.0 | 0.00 | 0.00 | 0.00 | 85 | 1017.9 |
| 20260903022540 | 57 | 259 | 3.0 | 7.0 | 0.00 | 0.00 | 0.00 | 85 | 1017.9 |
| 20260903022041 | 57 | 262 | 3.0 | 7.0 | 0.00 | 0.00 | 0.00 | 85 | 1018.0 |
| 20260903021541 | 57 | 255 | 4.0 | 6.0 | 0.00 | 0.00 | 0.00 | 85 | 1018.0 |
| 20260903021040 | 57 | 269 | 4.0 | 5.0 | 0.00 | 0.00 | 0.00 | 85 | 1018.0 |
| 20260903020540 | 57 | 269 | 3.0 | 4.0 | 0.00 | 0.00 | 0.00 | 85 | 1018.0 |
| 20260903020355 | 57 | 269 | 2.0 | 3.0 | 0.00 | 0.00 | 0.00 | 84 | 1018.0 |
| 20260903020057 | 57 | 269 | 2.0 | 3.0 | 0.00 | 0.00 | 0.00 | 84 | 1018.0 |
| 20260903015039 | 57 | 269 | 2.0 | 3.0 | 0.00 | 0.00 | 0.00 | 85 | 1018.0 |
| 20260903014538 | 58 | 269 | 2.0 | 3.0 | 0.00 | 0.00 | 0.00 | 85 | 1018.0 |
| 20260903014316 | 58 | 269 | 2.0 | 5.0 | 0.00 | 0.00 | 0.00 | 85 | 1018.1 |
| 20260903013814 | 58 | 269 | 2.0 | 5.0 | 0.00 | 0.00 | 0.00 | 85 | 1018.1 |
| 20260903013038 | 58 | 270 | 2.0 | 4.0 | 0.00 | 0.00 | 0.00 | 85 | 1018.2 |
| 20260903012816 | 58 | 270 | 2.0 | 3.0 | 0.00 | 0.00 | 0.00 | 85 | 1018.1 |
| 20260903012039 | 58 | 270 | 2.0 | 3.0 | 0.00 | 0.00 | 0.00 | 85 | 1018.2 |
| 20260903011538 | 58 | 270 | 2.0 | 3.0 | 0.00 | 0.00 | 0.00 | 86 | 1018.2 |
| 20260903011037 | 57 | 270 | 2.0 | 4.0 | 0.00 | 0.00 | 0.00 | 86 | 1018.1 |
| 20260903010538 | 57 | 270 | 3.0 | 4.0 | 0.00 | 0.00 | 0.00 | 86 | 1018.2 |
| 20260903010037 | 57 | 273 | 4.0 | 4.0 | 0.00 | 0.00 | 0.00 | 86 | 1018.2 |
| 20260903005538 | 57 | 272 | 4.0 | 5.0 | 0.00 | 0.00 | 0.00 | 86 | 1018.2 |
| 20260903005038 | 57 | 273 | 3.0 | 5.0 | 0.00 | 0.00 | 0.00 | 86 | 1018.2 |
| 20260903004537 | 56 | 275 | 2.0 | 5.0 | 0.00 | 0.00 | 0.00 | 85 | 1018.1 |
| 20260903004037 | 56 | 276 | 4.0 | 5.0 | 0.00 | 0.00 | 0.00 | 85 | 1018.1 |
| 20260903003610 | 56 | 276 | 2.0 | 3.0 | 0.00 | 0.00 | 0.00 | 85 | 1018.0 |
| 20260903003556 | 56 | 276 | 2.0 | 3.0 | 0.00 | 0.00 | 0.00 | 85 | 1018.1 |
| 20260903002537 | 56 | 276 | 0.0 | 0.0 | 0.00 | 0.00 | 0.00 | 85 | 1018.1 |
| 20260903002037 | 56 | 276 | 0.0 | 0.0 | 0.00 | 0.00 | 0.00 | 85 | 1018.1 |
| 20260903001536 | 56 | 276 | 0.0 | 0.0 | 0.00 | 0.00 | 0.00 | 85 | 1018.1 |
| 20260903001037 | 56 | 276 | 0.0 | 0.0 | 0.00 | 0.00 | 0.00 | 85 | 1018.1 |
| 20260903000536 | 56 | 276 | 0.0 | 0.0 | 0.00 | 0.00 | 0.00 | 85 | 1018.0 |
| 20260903000315 | 56 | 276 | 0.0 | 0.0 | 0.00 | 0.00 | 0.00 | 85 | 1018.1 |
| 20260902235535 | 56 | 276 | 0.0 | 1.0 | 0.00 | 0.00 | 0.00 | 85 | 1018.1 |
| 20260902235036 | 56 | 276 | 0.0 | 1.0 | 0.00 | 0.00 | 0.00 | 85 | 1018.1 |
| 20260902234536 | 56 | 276 | 1.0 | 1.0 | 0.00 | 0.00 | 0.00 | 86 | 1018.1 |
| 20260902234037 | 56 | 276 | 0.0 | 0.0 | 0.00 | 0.00 | 0.00 | 85 | 1018.1 |
| 20260902233537 | 56 | 276 | 0.0 | 0.0 | 0.00 | 0.00 | 0.00 | 85 | 1018.2 |
| 20260902233314 | 56 | 276 | 0.0 | 0.0 | 0.00 | 0.00 | 0.00 | 85 | 1018.3 |
| 20260902232535 | 56 | 276 | 0.0 | 0.0 | 0.00 | 0.00 | 0.00 | 85 | 1018.3 |
| 20260902232035 | 56 | 276 | 0.0 | 0.0 | 0.00 | 0.00 | 0.00 | 85 | 1018.2 |
| 20260902231535 | 56 | 276 | 0.0 | 0.0 | 0.00 | 0.00 | 0.00 | 85 | 1018.2 |
| 20260902231034 | 56 | 276 | 0.0 | 0.0 | 0.00 | 0.00 | 0.00 | 85 | 1018.2 |
| 20260902230537 | 56 | 276 | 0.0 | 0.0 | 0.00 | 0.00 | 0.00 | 85 | 1018.2 |
| 20260902230036 | 56 | 276 | 0.0 | 0.0 | 0.00 | 0.00 | 0.00 | 85 | 1018.2 |
| 20260902225534 | 55 | 276 | 0.0 | 0.0 | 0.00 | 0.00 | 0.00 | 85 | 1018.2 |
| 20260902225035 | 55 | 276 | 0.0 | 0.0 | 0.00 | 0.00 | 0.00 | 85 | 1018.3 |
| 20260902224809 | 55 | 276 | 0.0 | 0.0 | 0.00 | 0.00 | 0.00 | 85 | 1018.3 |
| 20260902224034 | 55 | 276 | 0.0 | 0.0 | 0.00 | 0.00 | 0.00 | 84 | 1018.3 |
| 20260902223815 | 55 | 276 | 0.0 | 0.0 | 0.00 | 0.00 | 0.00 | 84 | 1018.2 |
| 20260902223313 | 55 | 276 | 0.0 | 0.0 | 0.00 | 0.00 | 0.00 | 84 | 1018.3 |
| 20260902222533 | 55 | 276 | 0.0 | 0.0 | 0.00 | 0.00 | 0.00 | 83 | 1018.3 |
| 20260902222033 | 55 | 276 | 0.0 | 0.0 | 0.00 | 0.00 | 0.00 | 83 | 1018.3 |
| 20260902221533 | 55 | 276 | 0.0 | 0.0 | 0.00 | 0.00 | 0.00 | 83 | 1018.3 |
| 20260902221034 | 55 | 276 | 0.0 | 0.0 | 0.00 | 0.00 | 0.00 | 83 | 1018.3 |
| 20260902220534 | 55 | 276 | 0.0 | 0.0 | 0.00 | 0.00 | 0.00 | 83 | 1018.4 |
| 20260902220034 | 55 | 276 | 0.0 | 0.0 | 0.00 | 0.00 | 0.00 | 83 | 1018.4 |
| 20260902215504 | 55 | 276 | 0.0 | 0.0 | 0.00 | 0.00 | 0.00 | 83 | 1018.5 |
| 20260902215006 | 55 | 276 | 0.0 | 0.0 | 0.00 | 0.00 | 0.00 | 83 | 1018.5 |
| 20260902214506 | 56 | 276 | 0.0 | 0.0 | 0.00 | 0.00 | 0.00 | 82 | 1018.4 |
| 20260902214006 | 56 | 276 | 0.0 | 0.0 | 0.00 | 0.00 | 0.00 | 82 | 1018.5 |
| 20260902213505 | 56 | 276 | 0.0 | 0.0 | 0.00 | 0.00 | 0.00 | 82 | 1018.4 |
| 20260902213004 | 56 | 276 | 0.0 | 0.0 | 0.00 | 0.00 | 0.00 | 82 | 1018.4 |
| 20260902212506 | 56 | 276 | 0.0 | 0.0 | 0.00 | 0.00 | 0.00 | 81 | 1018.3 |
| 20260902212005 | 56 | 276 | 0.0 | 0.0 | 0.00 | 0.00 | 0.00 | 81 | 1018.3 |
| 20260902211506 | 56 | 276 | 0.0 | 0.0 | 0.00 | 0.00 | 0.00 | 81 | 1018.4 |
| 20260902211005 | 57 | 276 | 0.0 | 0.0 | 0.00 | 0.00 | 0.00 | 81 | 1018.3 |
| 20260902210503 | 57 | 276 | 0.0 | 0.0 | 0.00 | 0.00 | 0.00 | 81 | 1018.3 |
| 20260902210005 | 57 | 276 | 0.0 | 0.0 | 0.00 | 0.00 | 0.00 | 81 | 1018.3 |
| 20260902205745 | 57 | 276 | 0.0 | 0.0 | 0.00 | 0.00 | 0.00 | 81 | 1018.2 |
| 20260902205240 | 57 | 276 | 0.0 | 0.0 | 0.00 | 0.00 | 0.00 | 81 | 1018.3 |
| 20260902204505 | 57 | 276 | 0.0 | 0.0 | 0.00 | 0.00 | 0.00 | 81 | 1018.3 |
| 20260902204245 | 58 | 276 | 0.0 | 0.0 | 0.00 | 0.00 | 0.00 | 81 | 1018.3 |
| 20260902203505 | 58 | 276 | 0.0 | 0.0 | 0.00 | 0.00 | 0.00 | 81 | 1018.2 |
| 20260902203005 | 58 | 276 | 0.0 | 0.0 | 0.00 | 0.00 | 0.00 | 80 | 1018.4 |
| 20260902202744 | 58 | 276 | 0.0 | 0.0 | 0.00 | 0.00 | 0.00 | 80 | 1018.4 |
| 20260902202005 | 58 | 276 | 0.0 | 0.0 | 0.00 | 0.00 | 0.00 | 79 | 1018.5 |
| 20260902201714 | 58 | 276 | 0.0 | 0.0 | 0.00 | 0.00 | 0.00 | 79 | 1018.5 |
| 20260902200934 | 59 | 276 | 0.0 | 0.0 | 0.00 | 0.00 | 0.00 | 79 | 1018.5 |
| 20260902200433 | 59 | 276 | 0.0 | 0.0 | 0.00 | 0.00 | 0.00 | 79 | 1018.5 |
| 20260902195931 | 59 | 276 | 0.0 | 0.0 | 0.00 | 0.00 | 0.00 | 78 | 1018.4 |
| 20260902195433 | 59 | 276 | 0.0 | 0.0 | 0.00 | 0.00 | 0.00 | 78 | 1018.4 |
| 20260902194932 | 59 | 276 | 0.0 | 0.0 | 0.00 | 0.00 | 0.00 | 78 | 1018.4 |
| 20260902194433 | 60 | 276 | 0.0 | 2.0 | 0.00 | 0.00 | 0.00 | 77 | 1018.4 |
| 20260902193907 | 60 | 276 | 1.0 | 2.0 | 0.00 | 0.00 | 0.00 | 77 | 1018.4 |
| 20260902193405 | 60 | 276 | 1.0 | 2.0 | 0.00 | 0.00 | 0.00 | 77 | 1018.4 |
| 20260902193151 | 61 | 276 | 0.0 | 0.0 | 0.00 | 0.00 | 0.00 | 77 | 1018.4 |
| 20260902192407 | 61 | 276 | 0.0 | 0.0 | 0.00 | 0.00 | 0.00 | 76 | 1018.5 |
| 20260902191905 | 61 | 276 | 0.0 | 0.0 | 0.00 | 0.00 | 0.00 | 77 | 1018.5 |
| 20260902191457 | 62 | 276 | 0.0 | 0.0 | 0.00 | 0.00 | 0.00 | 77 | 1018.4 |
| 20260902191453 | 62 | 276 | 0.0 | 1.0 | 0.00 | 0.00 | 0.00 | 76 | 1018.3 |
| 20260902191441 | 62 | 276 | 0.0 | 0.0 | 0.00 | 0.00 | 0.00 | 76 | 1018.4 |
| 20260902185904 | 62 | 276 | 0.0 | 1.0 | 0.00 | 0.00 | 0.00 | 76 | 1018.3 |
| 20260902185404 | 63 | 276 | 0.0 | 2.0 | 0.00 | 0.00 | 0.00 | 76 | 1018.3 |
| 20260902184905 | 63 | 276 | 1.0 | 2.0 | 0.00 | 0.00 | 0.00 | 76 | 1018.3 |
| 20260902184405 | 63 | 276 | 1.0 | 2.0 | 0.00 | 0.00 | 0.00 | 76 | 1018.3 |
| 20260902183903 | 64 | 276 | 0.0 | 0.0 | 0.00 | 0.00 | 0.00 | 76 | 1018.3 |
| 20260902183404 | 64 | 276 | 0.0 | 0.0 | 0.00 | 0.00 | 0.00 | 75 | 1018.2 |
| 20260902182904 | 64 | 276 | 0.0 | 2.0 | 0.00 | 0.00 | 0.00 | 75 | 1018.1 |
| 20260902182402 | 64 | 276 | 0.0 | 2.0 | 0.00 | 0.00 | 0.00 | 75 | 1018.0 |
| 20260902181902 | 65 | 276 | 1.0 | 1.0 | 0.00 | 0.00 | 0.00 | 74 | 1018.1 |
| 20260902181404 | 65 | 276 | 1.0 | 1.0 | 0.00 | 0.00 | 0.00 | 74 | 1018.1 |
| 20260902181146 | 65 | 276 | 0.0 | 1.0 | 0.00 | 0.00 | 0.00 | 74 | 1018.0 |
| 20260902180403 | 65 | 276 | 0.0 | 1.0 | 0.00 | 0.00 | 0.00 | 74 | 1018.0 |
| 20260902175904 | 65 | 276 | 0.0 | 2.0 | 0.00 | 0.00 | 0.00 | 73 | 1017.9 |
| 20260902175404 | 65 | 276 | 1.0 | 2.0 | 0.00 | 0.00 | 0.00 | 72 | 1017.9 |
| 20260902175139 | 66 | 276 | 1.0 | 2.0 | 0.00 | 0.00 | 0.00 | 72 | 1017.9 |
| 20260902174404 | 66 | 276 | 1.0 | 2.0 | 0.00 | 0.00 | 0.00 | 71 | 1017.9 |
| 20260902173902 | 67 | 276 | 2.0 | 2.0 | 0.00 | 0.00 | 0.00 | 71 | 1017.9 |
| 20260902173403 | 67 | 276 | 0.0 | 2.0 | 0.00 | 0.00 | 0.00 | 69 | 1018.0 |
| 20260902172903 | 67 | 276 | 1.0 | 2.0 | 0.00 | 0.00 | 0.00 | 69 | 1018.0 |
| 20260902172404 | 68 | 276 | 0.0 | 2.0 | 0.00 | 0.00 | 0.00 | 68 | 1018.0 |
| 20260902172142 | 68 | 276 | 1.0 | 2.0 | 0.00 | 0.00 | 0.00 | 68 | 1017.9 |
| 20260902171403 | 68 | 276 | 0.0 | 4.0 | 0.00 | 0.00 | 0.00 | 67 | 1018.0 |
| 20260902170903 | 68 | 276 | 1.0 | 4.0 | 0.00 | 0.00 | 0.00 | 67 | 1018.0 |
| 20260902170405 | 68 | 275 | 3.0 | 6.0 | 0.00 | 0.00 | 0.00 | 68 | 1018.1 |
| 20260902165905 | 68 | 276 | 3.0 | 6.0 | 0.00 | 0.00 | 0.00 | 67 | 1018.0 |